Time,TemperatureF,DewpointF,PressureIn,WindDirection,WindDirectionDegrees,WindSpeedMPH,WindSpeedGustMPH,Humidity,HourlyPrecipIn,Conditions,Clouds,dailyrainin,SoftwareType,DateUTC
2013-07-24 00:01:00,66.0,48.0,29.78,NNE,19,0.0,2.0,53,0.00,,,-99.99,,2013-07-24 06:01:00,
2013-07-24 00:11:00,65.0,48.0,29.79,SSE,147,0.0,2.0,54,0.00,,,-99.99,,2013-07-24 06:11:00,
2013-07-24 00:34:00,65.0,50.0,29.78,SSE,147,0.0,2.0,58,0.00,,,-99.99,,2013-07-24 06:34:00,
2013-07-24 00:43:00,65.0,48.0,29.77,SSE,147,0.0,2.0,55,0.00,,,-99.99,,2013-07-24 06:43:00,
2013-07-24 00:53:00,64.0,50.0,29.78,SE,145,9.0,9.0,61,0.00,,,-99.99,,2013-07-24 06:53:00,
2013-07-24 01:02:00,65.0,47.0,29.77,SSW,192,0.0,11.0,53,0.00,,,-99.99,,2013-07-24 07:02:00,
2013-07-24 01:12:00,65.0,50.0,29.77,East,92,2.0,4.0,58,0.00,,,-99.99,,2013-07-24 07:12:00,
2013-07-24 01:22:00,65.0,49.0,29.77,East,92,0.0,4.0,57,0.00,,,-99.99,,2013-07-24 07:22:00,
2013-07-24 01:32:00,64.0,50.0,29.78,East,92,2.0,4.0,60,0.00,,,-99.99,,2013-07-24 07:32:00,
2013-07-24 01:52:00,63.0,49.0,29.78,SSE,163,0.0,4.0,60,0.00,,,-99.99,,2013-07-24 07:52:00,
2013-07-24 02:02:00,63.0,49.0,29.78,SSE,158,0.0,4.0,60,0.00,,,-99.99,,2013-07-24 08:02:00,
2013-07-24 02:12:00,63.0,48.0,29.78,SSE,161,0.0,4.0,59,0.00,,,-99.99,,2013-07-24 08:12:00,
2013-07-24 02:32:00,63.0,49.0,29.78,SSE,161,0.0,1.0,60,0.00,,,-99.99,,2013-07-24 08:32:00,
2013-07-24 02:42:00,62.0,48.0,29.78,SSE,161,0.0,4.0,61,0.00,,,-99.99,,2013-07-24 08:42:00,
2013-07-24 02:52:00,62.0,48.0,29.78,SSE,161,0.0,0.0,61,0.00,,,-99.99,,2013-07-24 08:52:00,
2013-07-24 03:02:00,61.0,48.0,29.78,SSE,161,0.0,2.0,62,0.00,,,-99.99,,2013-07-24 09:02:00,
2013-07-24 03:12:00,61.0,48.0,29.78,SSE,161,1.0,2.0,62,0.00,,,-99.99,,2013-07-24 09:12:00,
2013-07-24 03:22:00,61.0,48.0,29.78,SSE,161,0.0,2.0,63,0.00,,,-99.99,,2013-07-24 09:22:00,
2013-07-24 03:32:00,60.0,47.0,29.78,SSE,160,0.0,2.0,63,0.00,,,-99.99,,2013-07-24 09:32:00,
2013-07-24 03:43:00,60.0,47.0,29.78,SSE,160,0.0,0.0,63,0.00,,,-99.99,,2013-07-24 09:43:00,
2013-07-24 04:02:00,60.0,49.0,29.78,SSE,160,0.0,0.0,66,0.00,,,-99.99,,2013-07-24 10:02:00,
2013-07-24 04:12:00,60.0,48.0,29.78,North,5,3.0,5.0,64,0.00,,,-99.99,,2013-07-24 10:12:00,
2013-07-24 04:33:00,60.0,47.0,29.77,North,360,3.0,4.0,63,0.00,,,-99.99,,2013-07-24 10:33:00,
2013-07-24 04:43:00,60.0,47.0,29.77,North,5,0.0,5.0,63,0.00,,,-99.99,,2013-07-24 10:43:00,
2013-07-24 04:53:00,60.0,48.0,29.76,North,5,0.0,3.0,64,0.00,,,-99.99,,2013-07-24 10:53:00,
2013-07-24 05:02:00,59.0,47.0,29.76,ENE,59,1.0,2.0,64,0.00,,,-99.99,,2013-07-24 11:02:00,
2013-07-24 05:22:00,59.0,48.0,29.76,SSE,157,1.0,4.0,67,0.00,,,-99.99,,2013-07-24 11:22:00,
2013-07-24 06:32:00,58.0,49.0,29.77,SSE,156,0.0,0.0,71,0.00,,,-99.99,,2013-07-24 12:32:00,
2013-07-24 06:52:00,58.0,49.0,29.77,SSE,156,0.0,1.0,73,0.00,,,-99.99,,2013-07-24 12:52:00,
2013-07-24 07:02:00,58.0,49.0,29.76,SSE,156,0.0,0.0,72,0.00,,,-99.99,,2013-07-24 13:02:00,
2013-07-24 07:32:00,58.0,49.0,29.76,SSE,155,0.0,1.0,72,0.00,,,-99.99,,2013-07-24 13:32:00,
2013-07-24 07:43:00,59.0,50.0,29.76,SSE,155,0.0,1.0,72,0.00,,,-99.99,,2013-07-24 13:43:00,
2013-07-24 07:53:00,59.0,49.0,29.76,West,277,0.0,1.0,69,0.00,,,-99.99,,2013-07-24 13:53:00,
2013-07-24 08:12:00,60.0,49.0,29.76,SSW,211,0.0,2.0,67,0.00,,,-99.99,,2013-07-24 14:12:00,
2013-07-24 08:22:00,61.0,50.0,29.76,SSW,211,0.0,2.0,66,0.00,,,-99.99,,2013-07-24 14:22:00,
2013-07-24 08:32:00,63.0,50.0,29.76,SSW,211,0.0,1.0,62,0.00,,,-99.99,,2013-07-24 14:32:00,
2013-07-24 08:43:00,66.0,51.0,29.76,ESE,106,0.0,4.0,59,0.00,,,-99.99,,2013-07-24 14:43:00,
2013-07-24 08:55:00,69.0,52.0,29.76,ESE,121,0.0,4.0,54,0.00,,,-99.99,,2013-07-24 14:55:00,
2013-07-24 09:02:00,71.0,50.0,29.76,SE,142,1.0,4.0,48,0.00,,,-99.99,,2013-07-24 15:02:00,
2013-07-24 09:12:00,72.0,49.0,29.76,ESE,106,0.0,4.0,45,0.00,,,-99.99,,2013-07-24 15:12:00,
2013-07-24 09:22:00,73.0,49.0,29.75,ESE,106,0.0,2.0,42,0.00,,,-99.99,,2013-07-24 15:22:00,
2013-07-24 09:32:00,73.0,48.0,29.75,ESE,106,0.0,2.0,41,0.00,,,-99.99,,2013-07-24 15:32:00,
2013-07-24 09:43:00,73.0,48.0,29.76,ESE,106,0.0,4.0,41,0.00,,,-99.99,,2013-07-24 15:43:00,
2013-07-24 09:52:00,73.0,50.0,29.75,SSE,151,6.0,6.0,45,0.00,,,-99.99,,2013-07-24 15:52:00,
2013-07-24 10:02:00,72.0,52.0,29.75,SSE,148,0.0,7.0,49,0.00,,,-99.99,,2013-07-24 16:02:00,
2013-07-24 10:12:00,71.0,54.0,29.74,ENE,63,2.0,5.0,54,0.00,,,-99.99,,2013-07-24 16:12:00,
2013-07-24 10:22:00,70.0,52.0,29.75,SSW,192,5.0,12.0,52,0.00,,,-99.99,,2013-07-24 16:22:00,
2013-07-24 10:32:00,70.0,55.0,29.74,SSW,209,0.0,7.0,58,0.00,,,-99.99,,2013-07-24 16:32:00,
2013-07-24 10:43:00,70.0,54.0,29.75,SSW,209,2.0,2.0,56,0.00,,,-99.99,,2013-07-24 16:43:00,
2013-07-24 10:53:00,70.0,54.0,29.75,WSW,251,0.0,6.0,56,0.00,,,-99.99,,2013-07-24 16:53:00,
2013-07-24 11:02:00,71.0,52.0,29.75,NNE,22,2.0,4.0,51,0.00,,,-99.99,,2013-07-24 17:02:00,
2013-07-24 11:12:00,74.0,52.0,29.75,NE,41,5.0,6.0,46,0.00,,,-99.99,,2013-07-24 17:12:00,
2013-07-24 11:22:00,76.0,50.0,29.75,NNE,32,3.0,6.0,40,0.00,,,-99.99,,2013-07-24 17:22:00,
2013-07-24 11:33:00,78.0,48.0,29.74,North,5,0.0,7.0,35,0.00,,,-99.99,,2013-07-24 17:33:00,
2013-07-24 12:02:00,82.0,47.0,29.73,ENE,75,0.0,4.0,29,0.00,,,-99.99,,2013-07-24 18:02:00,
2013-07-24 12:12:00,83.0,47.0,29.73,East,92,2.0,7.0,28,0.00,,,-99.99,,2013-07-24 18:12:00,
2013-07-24 12:22:00,84.0,48.0,29.73,SSE,168,4.0,6.0,29,0.00,,,-99.99,,2013-07-24 18:22:00,
2013-07-24 13:22:00,87.0,41.0,29.70,East,98,2.0,21.0,20,0.00,,,-99.99,,2013-07-24 19:22:00,
2013-07-24 13:32:00,87.0,37.0,29.70,SSE,161,10.0,24.0,17,0.00,,,-99.99,,2013-07-24 19:32:00,
2013-07-24 13:43:00,86.0,33.0,29.70,SSE,153,6.0,25.0,15,0.00,,,-99.99,,2013-07-24 19:43:00,
2013-07-24 13:53:00,86.0,38.0,29.69,South,178,11.0,20.0,18,0.00,,,-99.99,,2013-07-24 19:53:00,
2013-07-24 14:13:00,86.0,38.0,29.70,SE,130,7.0,22.0,18,0.00,,,-99.99,,2013-07-24 20:13:00,
2013-07-24 14:22:00,86.0,35.0,29.69,SSE,164,10.0,25.0,16,0.00,,,-99.99,,2013-07-24 20:22:00,
2013-07-24 14:32:00,84.0,36.0,29.69,WSW,240,12.0,22.0,18,0.00,,,-99.99,,2013-07-24 20:32:00,
2013-07-24 14:42:00,83.0,34.0,29.68,SSE,151,7.0,20.0,17,0.00,,,-99.99,,2013-07-24 20:42:00,
2013-07-24 14:52:00,83.0,36.0,29.69,WSW,239,13.0,21.0,19,0.00,,,-99.99,,2013-07-24 20:52:00,
2013-07-24 15:12:00,80.0,38.0,29.70,SSW,206,6.0,22.0,22,0.00,,,-99.99,,2013-07-24 21:12:00,
2013-07-24 15:22:00,80.0,39.0,29.70,SSW,194,6.0,20.0,23,0.00,,,-99.99,,2013-07-24 21:22:00,
2013-07-24 15:32:00,80.0,40.0,29.70,South,171,7.0,19.0,24,0.00,,,-99.99,,2013-07-24 21:32:00,
2013-07-24 15:52:00,80.0,38.0,29.70,WSW,252,9.0,16.0,22,0.00,,,-99.99,,2013-07-24 21:52:00,
2013-07-24 16:02:00,80.0,38.0,29.69,WSW,241,7.0,13.0,22,0.00,,,-99.99,,2013-07-24 22:02:00,
2013-07-24 16:12:00,80.0,43.0,29.69,NNW,329,7.0,9.0,27,0.00,,,-99.99,,2013-07-24 22:12:00,
2013-07-24 16:22:00,81.0,42.0,29.68,NNE,13,7.0,11.0,25,0.00,,,-99.99,,2013-07-24 22:22:00,
2013-07-24 16:32:00,81.0,46.0,29.67,NNE,14,7.0,15.0,29,0.00,,,-99.99,,2013-07-24 22:32:00,
2013-07-24 16:43:00,80.0,44.0,29.67,North,5,9.0,17.0,28,0.00,,,-99.99,,2013-07-24 22:43:00,
2013-07-24 17:02:00,82.0,43.0,29.65,NNE,20,6.0,10.0,25,0.00,,,-99.99,,2013-07-24 23:02:00,
2013-07-24 17:12:00,83.0,42.0,29.65,ENE,57,6.0,10.0,24,0.00,,,-99.99,,2013-07-24 23:12:00,
2013-07-24 17:22:00,82.0,39.0,29.65,North,355,8.0,11.0,22,0.00,,,-99.99,,2013-07-24 23:22:00,
2013-07-24 17:32:00,82.0,39.0,29.65,North,360,5.0,9.0,22,0.00,,,-99.99,,2013-07-24 23:32:00,
2013-07-24 17:43:00,83.0,39.0,29.65,NE,39,3.0,8.0,21,0.00,,,-99.99,,2013-07-24 23:43:00,
2013-07-24 17:52:00,84.0,39.0,29.65,NNE,17,0.0,6.0,20,0.00,,,-99.99,,2013-07-24 23:52:00,
2013-07-24 18:02:00,84.0,40.0,29.65,NNE,17,0.0,0.0,21,0.00,,,-99.99,,2013-07-25 00:02:00,
2013-07-24 18:12:00,85.0,44.0,29.64,North,355,2.0,5.0,24,0.00,,,-99.99,,2013-07-25 00:12:00,
2013-07-24 18:22:00,84.0,42.0,29.64,NW,310,3.0,6.0,23,0.00,,,-99.99,,2013-07-25 00:22:00,
2013-07-24 18:33:00,85.0,41.0,29.63,NE,40,1.0,5.0,21,0.00,,,-99.99,,2013-07-25 00:33:00,
2013-07-24 18:43:00,84.0,43.0,29.63,West,264,9.0,11.0,24,0.00,,,-99.99,,2013-07-25 00:43:00,
2013-07-24 19:02:00,82.0,44.0,29.63,West,265,8.0,12.0,26,0.00,,,-99.99,,2013-07-25 01:02:00,
2013-07-24 19:12:00,81.0,45.0,29.64,WSW,239,10.0,13.0,28,0.00,,,-99.99,,2013-07-25 01:12:00,
2013-07-24 20:02:00,68.0,54.0,29.74,SW,228,0.0,11.0,61,0.00,,,-99.99,,2013-07-25 02:02:00,
2013-07-24 20:12:00,67.0,55.0,29.74,SE,146,12.0,14.0,65,0.00,,,-99.99,,2013-07-25 02:12:00,
2013-07-24 20:22:00,66.0,56.0,29.75,SE,143,9.0,15.0,70,0.00,,,-99.99,,2013-07-25 02:22:00,
2013-07-24 20:33:00,64.0,55.0,29.76,South,189,4.0,9.0,72,0.00,,,-99.99,,2013-07-25 02:33:00,
2013-07-24 20:43:00,64.0,56.0,29.76,West,267,0.0,8.0,75,0.06,,,-99.99,,2013-07-25 02:43:00,
2013-07-24 21:02:00,64.0,57.0,29.77,West,267,0.0,3.0,78,0.00,,,-99.99,,2013-07-25 03:02:00,
2013-07-24 21:14:00,63.0,57.0,29.78,West,267,0.0,0.0,80,0.00,,,-99.99,,2013-07-25 03:14:00,
2013-07-24 21:24:00,63.0,57.0,29.79,West,268,0.0,0.0,82,0.00,,,-99.99,,2013-07-25 03:24:00,
2013-07-24 21:34:00,63.0,58.0,29.79,West,268,0.0,1.0,85,0.00,,,-99.99,,2013-07-25 03:34:00,
2013-07-24 21:44:00,62.0,57.0,29.80,West,268,0.0,0.0,84,0.00,,,-99.99,,2013-07-25 03:44:00,
2013-07-24 22:02:00,61.0,57.0,29.80,West,267,2.0,2.0,88,0.00,,,-99.99,,2013-07-25 04:02:00,
2013-07-24 22:12:00,61.0,57.0,29.80,West,267,0.0,2.0,88,0.00,,,-99.99,,2013-07-25 04:12:00,
2013-07-24 22:32:00,61.0,58.0,29.80,West,267,2.0,3.0,89,0.00,,,-99.99,,2013-07-25 04:32:00,
2013-07-24 22:43:00,61.0,58.0,29.80,WNW,301,3.0,4.0,89,0.00,,,-99.99,,2013-07-25 04:43:00,
2013-07-24 22:53:00,61.0,57.0,29.79,WNW,301,3.0,5.0,87,0.00,,,-99.99,,2013-07-25 04:53:00,
2013-07-24 23:02:00,61.0,56.0,29.79,WNW,301,3.0,4.0,85,0.00,,,-99.99,,2013-07-25 05:02:00,
2013-07-24 23:12:00,61.0,56.0,29.79,WNW,302,0.0,5.0,85,0.00,,,-99.99,,2013-07-25 05:12:00,
2013-07-24 23:22:00,61.0,56.0,29.78,WNW,302,0.0,1.0,85,0.00,,,-99.99,,2013-07-25 05:22:00,
2013-07-24 23:32:00,61.0,56.0,29.78,WNW,302,0.0,2.0,85,0.00,,,-99.99,,2013-07-25 05:32:00,
2013-07-24 23:43:00,61.0,56.0,29.78,WNW,301,0.0,3.0,85,0.00,,,-99.99,,2013-07-25 05:43:00,
2013-07-24 23:52:00,60.0,55.0,29.78,WNW,302,0.0,0.0,85,0.00,,,-99.99,,2013-07-25 05:52:00,